Location: ?????
(32.7281°N, 34.9563°E)
Time: 12:34:04
(UTC+00:00)

Cosmos 2082 - Pass Details

Date: 29 October 2020
Orbit: 832 x 857 km, 71.0° (Epoch: 26 November)

Event Time Altitude Azimuth Distance (km) Brightness Sun altitude
Rises 16:33:11 0° 341° (NNW) 3,432 7.1 -21.8°
Reaches altitude 10° 16:35:40 10° 343° (NNW) 2,493 6.3 -22.4°
Maximum altitude 16:41:24 75° 69° (ENE) 888 3.6 -23.6°
Enters shadow 16:43:40 38° 146° (SSE) 1,284 4.3 -24.0°
